Regional Weather Roundup
Issued by NWS Newport/Morehead, NC

Current Version | Previous Version | Text Only | Print | Product List | Glossary Off
Versions: 1 2 3 4 5 6 7 8 9 10 11 12 13 14 15 16 17 18 19 20 21 22 23 24 25 26 27 28 29 30 31 32 33 34 35 36 37 38 39 40 41 42 43 44 45 46 47 48 49 50
000 ASUS42 KMHX 061113 RWRMHX WEATHER ROUNDUP FOR EASTERN NORTH CAROLINA NATIONAL WEATHER SERVICE NEWPORT/MOREHEAD CITY NC 700 AM EDT MON JUL 06 2015 NOTE: "FAIR" INDICATES FEW OR NO CLOUDS BELOW 12,000 FEET WITH NO SIGNIFICANT WEATHER AND/OR OBSTRUCTIONS TO VISIBILITY NCZ015>017-031-032-045>047-102-103-061200- NORTH COAST CITY SKY/WX TMP DP RH WIND PRES REMARKS EDENTON MOSUNNY 75 73 91 S6 30.13S ELIZABETH CITY MOSUNNY 74 72 93 S5 30.14R KITTY HAWK PTSUNNY 78 75 90 SW5 30.13R MANTEO PTSUNNY 77 75 92 SW7 30.15R $$ NCZ045>047-081-094-103-104-061200- CENTRAL COAST CITY SKY/WX TMP DP RH WIND PRES REMARKS FRISCO MOSUNNY 76 75 97 W5 30.15S SWANQUARTER N/A 81 N/A N/A SW7G14 30.12R $$ NCZ095-097-098-100-101-061200- SOUTHERN COAST CITY SKY/WX TMP DP RH WIND PRES REMARKS BEAUFORT MOSUNNY 80 77 90 SW12 30.14S CEDAR ISLAND N/A 81 N/A N/A S3 30.18S JACKSONVILLE PTCLDY 74 69 85 S7 30.13R PINEY ISLAND SUNNY N/A N/A N/A S3 30.14S WILMINGTON PTCLDY 76 73 91 S5 30.13R $$ NCZ011>013-027>030-043-044-078>080-089-090>093-098-061200- COASTAL PLAIN CITY SKY/WX TMP DP RH WIND PRES REMARKS AHOSKIE MOSUNNY N/A N/A N/A S5 30.13S CLINTON MOCLDY 74 74 100 CALM 30.13R FOG ELIZABETHTOWN CLEAR 74 74 100 CALM 30.12R GOLDSBORO CLOUDY 75 73 94 S2 30.10S GREENVILLE CLOUDY 75 73 94 SW3 30.14S FOG HAVELOCK CLOUDY 74 71 91 VRB3 30.15S KENANSVILLE CLOUDY 75 74 96 CALM 30.13S KINSTON CLOUDY 75 73 94 S5 30.13S FOG NEW BERN MOSUNNY 76 73 91 S5 30.14S RICHLANDS PTCLDY 73 68 83 S5 30.13S ROCKY MOUNT PTCLDY 73 72 96 SE5 30.12R FOG WASHINGTON SUNNY 75 73 93 S3 30.14S WHITEVILLE CLEAR 74 72 93 CALM 30.13R $$ AMZ130-135-150-152-154-156-158-170-250-252-270-ANZ085-086-088-633-658-670-061200- MARINE OBSERVATIONS STATION/POSITION TIME TEMP WIND PRES WAVE SWELL AIR SEA DIR/SP/G HT/PER HT/PER (UTC) (F) (DEG/KT/KT) (MB) (FT/S) (FT/S) CHESAPEAKE LIGHT 1100 76 100/ 12/ 12 1020.7 64 E VA BEACH 1050 78 77 210/ 6/ 6 1020.1 3/ 9 3/ 9 DUCK 1000 78 77 230/ 10/ 12 N/A 2 E DUCK 1011 78 N/A 2/13 OREGON INLET 1000 79 81 230/ 11/ 12 1020.4 13E OREGON INLT 1100 78 N/A 3/ 8 2/13 HATTERAS CG 1000 78 79 220/ 4/ 6 1020.5 DIAMOND BUOY 1050 79 81 230/ 10/ 12 1020.7 2/ 9 2/ 9 CAPE LOOKOUT 1100 79 200/ 9/ 11 1020.6 BEAUFORT LAB 1000 80 81 200/ 10/ 12 1019.7 30 SE NEW RVR IN NOT AVBL 27 SE WRIGHTSVLE 1000 79 250/ 10/ 10 N/A 5 SE WRIGHTSVLE 1008 78 78 220/ 12/ 17 1020.1 225 S CAPE HAT 1050 81 80 200/ 10/ 12 1022.4 3/ 7 3/ 7 41 SE CHARLESTON 1050 80 81 230/ 8/ 10 1019.9 3/ 8 3/ 8 $$

USA.gov is the U.S. government's official web portal to all federal, state and local government web resources and services.